Retour au catalogue

STARLINK-1321

ActifCommunicationsVLEO
NORAD 45573·PAYLOAD·🇺🇸 United States

Lancé Apr 22, 2020 depuis Cape Canaveral Space Force Station

Loading…

Prochains Passages (prochaines 24 heures)

TLE

FraisSource: CelesTrak SupGP

Époque: Sep 14, 2026, 13:41 UTC

1 45573C 20025AU  26257.57062500  .00043537  00000+0  21443-3 0  2575
2 45573  53.0340 210.8215 0006045  69.8706  50.1509 15.81385571    16

Suivez STARLINK-1321 en temps réel avec AllMySat

Download on the App Store